Miscellaneous Local Product
Issued by NWS Hastings, NE

Home | Current Version | Previous Version | Graphics & Text | Print | Product List | Glossary On
Versions: 1 2 3 4 5 6 7 8 9 10 11 12 13 14 15 16 17 18 19 20 21 22 23 24 25 26 27 28 29 30 31 32 33 34 35 36 37 38 39 40 41 42 43 44 45 46 47 48 49 50
000
AXUS43 KGID 240502
MISGRI

GID CWA HOURLY WEATHER ROUNDUP
NATIONAL WEATHER SERVICE HASTINGS NE
1200 AM CDT FRI APR 24 2015

NOTE: "FAIR" INDICATES FEW OR NO CLOUDS BELOW 12,000 FEET WITH NO
SIGNIFICANT WEATHER AND/OR OBSTRUCTIONS TO VISIBILITY.

...SOUTH CENTRAL NEBRASKA...

CITY           SKY/WX    TMP DP  RH WIND       PRES   REMARKS
GRAND ISLAND   CLOUDY    55  38  52 S15G24    29.86R
HASTINGS       MOCLDY    55  42  61 S12       29.85S
KEARNEY        CLOUDY    54  39  58 S16       29.84S
ORD            CLOUDY    55  42  61 SE8       29.81R
YORK           CLOUDY    57  36  44 S13G18    29.87F
AURORA         CLOUDY    56  38  49 S13       29.86S
LEXINGTON      DRIZZLE   58  50  73 SW10G26   29.85R
HOLDREGE       CLOUDY    55  42  61 S10       29.84R
HEBRON         CLOUDY    56  38  51 S5        29.89S

...NEBRASKA PANHANDLE...

CITY           SKY/WX    TMP DP  RH WIND       PRES   REMARKS
CHADRON        CLOUDY    51  43  74 MISG      29.67F
ALLIANCE       MOCLDY    52  43  71 S16       29.71S
SCOTTSBLUFF    CLOUDY    56  39  53 SE8       29.73S
SIDNEY         CLOUDY    50  44  80 SE9       29.76S

...WESTERN AND NORTH CENTRAL NEBRASKA...

CITY           SKY/WX    TMP DP  RH WIND       PRES   REMARKS
VALENTINE      CLOUDY    56  43  61 S7        29.70S
AINSWORTH      CLOUDY    55  42  62 S22G28    29.70F
ONEILL         PTCLDY    55  39  54 S16       29.80S
BROKEN BOW     CLOUDY    57  46  66 S22G33    29.75F
IMPERIAL       CLOUDY    52  45  77 SE14      29.79F
NORTH PLATTE   NOT AVBL
MCCOOK         CLOUDY    59  50  72 SE7       29.83R

...EASTERN NEBRASKA...

CITY           SKY/WX    TMP DP  RH WIND       PRES   REMARKS
NORFOLK        CLOUDY    59  33  37 S14       29.85R
SO SIOUX CITY  CLOUDY    55  33  43 SE12      29.89R
TEKAMAH        CLOUDY    57  35  43 SE15      29.90R
COLUMBUS       CLOUDY    57  32  38 S16G24    29.87F
ALBION         CLOUDY    57  33  40 S15       29.85R
OMAHA EPPLEY   CLOUDY    58  34  40 S17       29.91S
OFFUTT AFB     CLOUDY    56  36  47 SE10      29.91S
MILLARD        CLOUDY    57  36  44 SE8       29.91S
LINCOLN        CLOUDY    58  34  40 SE13      29.90F
NEBRASKA CITY  CLOUDY    56  29  36 SE6       29.93R
BEATRICE       CLOUDY    57  34  42 S10G16    29.90F
FALLS CITY     CLOUDY    56  36  47 SE8       29.93S

...NORTHERN KANSAS...

CITY           SKY/WX    TMP DP  RH WIND       PRES   REMARKS
GOODLAND       CLOUDY    54  49  83 S14       29.80S
HILL CITY      MOCLDY    57  50  77 SE10      29.80F
NORTON         CLEAR     55  46  71 SE9G16    29.81F
SMITH CENTER   CLOUDY    55  45  67 SE15      29.87S
BELOIT         CLOUDY    55  43  62 SE7       29.89R
HAYS           CLOUDY    55  46  71 W7        29.88R
RUSSELL        CLOUDY    57  48  72 SE15      29.85R
CONCORDIA      CLOUDY    56  41  57 SE9       29.90R
SALINA         CLOUDY    56  43  61 SE12      29.87F
TOPEKA         CLOUDY    60  36  40 SE10      29.94S



USA.gov is the U.S. government's official web portal to all federal, state and local government web resources and services.